Weather History for Ogden, UT

Change the Weather History Date:

Tuesday, March 4, 2014

  Actual Average Record
Temperature  
Mean Temperature 42 °F -  
Max Temperature 48 °F 46 °F 69 °F (1987)
Min Temperature 37 °F 26 °F 5 °F (1974)
Degree Days  
Heating Degree Days 22    
Moisture  
Dew Point 36 °F    
Average Humidity 75    
Maximum Humidity 89    
Minimum Humidity 59    
Precipitation  
Precipitation 0.24 in - - ()
Sea Level Pressure  
Sea Level Pressure 29.98 in    
Wind  
Wind Speed 8 mph (NNW)    
Max Wind Speed 14 mph    
Max Gust Speed -    
Visibility 10 miles    
Events Rain , Thunderstorm    
Averages and records for this station are not official NWS values.
T = Trace of Precipitation, MM = Missing Value Source: NWS Daily Summary

Daily Weather History Graph

Daily Weather History Graph

Search for Another Location

Airport:

Trip Planner

Search our weather history database for the weather conditions in past years. The results will help you decide how hot, cold, wet, or windy it might be!

Date:

Astronomy

Mar. 04, 2014 Rise Set
Actual Time 6:57 AM MST 6:22 PM MST
Civil Twilight 6:29 AM MST 6:50 PM MST
Nautical Twilight 5:58 AM MST 7:22 PM MST
Astronomical Twilight 5:26 AM MST 7:54 PM MST
Moon 8:43 AM MST (3/4) 10:36 PM MST (3/4)
Length of Visible Light 12h 20m
Length of Day
11h 24m
Waxing Crescent, 15% of the Moon is Illuminated
Mar 4
Waxing Crescent
Mar 8
First Quarter
Mar 16
Full
Mar 23
Last Quarter
Mar 30
New

Hourly Weather History & Observations

Time (MST) Temp. Windchill Dew Point Humidity Pressure Visibility Wind Dir Wind Speed Gust Speed Precip Events Conditions
12:53 AM 48.0 °F - 35.1 °F 61% 29.88 in 10.0 mi NE 5.8 mph - N/A   Overcast
1:53 AM 48.9 °F - 35.1 °F 59% 29.88 in 10.0 mi NNE 3.5 mph - N/A   Overcast
2:53 AM 48.0 °F - 35.1 °F 61% 29.87 in 10.0 mi North 4.6 mph - N/A   Overcast
3:53 AM 48.0 °F - 36.0 °F 63% 29.85 in 10.0 mi NNE 8.1 mph - N/A   Overcast
4:53 AM 46.0 °F 43.1 °F 36.0 °F 68% 29.86 in 10.0 mi NW 5.8 mph - N/A   Overcast
5:53 AM 45.0 °F 38.9 °F 37.0 °F 74% 29.86 in 10.0 mi NNW 12.7 mph - N/A   Overcast
6:40 AM 43.0 °F 36.4 °F 39.0 °F 86% 29.92 in 10.0 mi North 12.7 mph - 0.00 in   Overcast
6:53 AM 43.0 °F 38.2 °F 39.0 °F 86% 29.88 in 10.0 mi North 8.1 mph - 0.00 in   Overcast
7:53 AM 41.0 °F 33.5 °F 37.0 °F 86% 29.90 in 10.0 mi NNW 13.8 mph - 0.02 in Rain Light Rain
8:04 AM 41.0 °F 33.5 °F 37.0 °F 86% 29.95 in 10.0 mi NNW 13.8 mph - 0.00 in Rain Light Rain
8:53 AM 39.9 °F 33.4 °F 37.0 °F 89% 29.92 in 4.0 mi NW 10.4 mph - 0.05 in Rain Rain
9:53 AM 39.9 °F 32.5 °F 36.0 °F 86% 29.95 in 6.0 mi NNW 12.7 mph - 0.09 in Rain Light Rain
10:53 AM 41.0 °F 34.7 °F 37.0 °F 86% 29.97 in 7.0 mi North 10.4 mph - 0.05 in Rain Light Rain
11:41 AM 43.0 °F 38.2 °F 37.0 °F 80% 30.01 in 10.0 mi NNE 8.1 mph - 0.03 in Rain Light Rain
11:53 AM 43.0 °F 39.5 °F 37.0 °F 80% 29.96 in 10.0 mi North 5.8 mph - 0.03 in   Overcast
12:53 PM 45.0 °F - 37.9 °F 76% 29.95 in 10.0 mi Calm Calm - N/A   Overcast
1:53 PM 46.0 °F 41.4 °F 37.0 °F 71% 29.98 in 10.0 mi West 9.2 mph - 0.00 in Rain Light Rain
2:53 PM 48.0 °F - 36.0 °F 63% 29.99 in 10.0 mi WNW 10.4 mph - 0.00 in   Overcast
3:53 PM 46.9 °F - 36.0 °F 66% 30.01 in 10.0 mi West 8.1 mph - N/A   Mostly Cloudy
4:53 PM 46.9 °F - 36.0 °F 66% 30.02 in 10.0 mi SW 8.1 mph - N/A   Clear
5:21 PM 46.9 °F - 36.0 °F 66% 30.07 in 10.0 mi SW 6.9 mph - N/A Thunderstorm Clear
5:53 PM 46.0 °F 43.1 °F 34.0 °F 63% 30.04 in 10.0 mi NE 5.8 mph - N/A   Scattered Clouds
6:53 PM 44.1 °F 42.5 °F 35.1 °F 71% 30.06 in 10.0 mi SSE 3.5 mph - N/A   Clear
7:53 PM 39.9 °F 33.9 °F 34.0 °F 79% 30.08 in 10.0 mi South 9.2 mph - N/A   Clear
8:53 PM 39.9 °F 33.4 °F 33.1 °F 77% 30.10 in 10.0 mi SSE 10.4 mph - N/A   Clear
9:53 PM 37.9 °F 32.1 °F 33.1 °F 83% 30.13 in 10.0 mi South 8.1 mph - N/A   Clear
10:53 PM 37.9 °F 32.1 °F 32.0 °F 79% 30.14 in 10.0 mi South 8.1 mph - N/A   Clear
11:53 PM 39.0 °F 33.4 °F 33.1 °F 79% 30.13 in 10.0 mi South 8.1 mph - N/A   Overcast